SKOVDE FLYGPLATS current weather conditions

sailwx.info

Wind from 150 at 4 knots

Air temperature 6.0° C
Visibility: greater than 5.4 NM
Dewpoint 4.0° C
Present weather: Light rain.

Last reported at 2014-Sep-23 20:50 UTC.
Time now 2014-Sep-23 22:26 UTC

Location: N 58°27' E 013°58'.
View on Google Maps.

See reports from other nearby stations

  
Tides and Currents Weather Stations Pressure Air Temp Water Temp Dewpoint Dewpoint Depression Visibility Wind Speed Wind Dir Waves Ship Positions
date/time (UTC)wind fromknots sea level pressurealtimeterstation pressurevisibilityair tempwater tempwave heightnotes
2014-Sep-23 21:20 170 7 2.7 6.0 Light rain.
2014-Sep-23 20:50 150 4 5.4 6.0 Light rain.
2014-Sep-23 20:20 180 4 5.4 7.0 Light drizzle.
2014-Sep-23 19:50 180 5 5.4 7.0 Light drizzle.
2014-Sep-23 19:20 190 4 5.4 6.0
2014-Sep-23 18:50 190 3 5.4 6.0
2014-Sep-23 18:20 5.4 7.0
2014-Sep-23 17:50 170 2 5.4 7.0
2014-Sep-23 17:20 5.4 8.0
2014-Sep-23 16:50 160 2 5.4 7.0
2014-Sep-23 16:20 5.4 8.0
2014-Sep-23 15:50 160 1 5.4 9.0
2014-Sep-23 15:20 220 2 5.410.0
2014-Sep-23 14:50 260 3 5.410.0
2014-Sep-23 14:20 300 1 5.411.0
2014-Sep-23 13:50 5.410.0
2014-Sep-23 13:20 330 3 5.410.0
2014-Sep-23 12:50 310 5 5.410.0
2014-Sep-23 12:20 5.410.0
2014-Sep-23 11:50 340 5 5.410.0
2014-Sep-23 11:20 290 3 5.410.0
2014-Sep-23 10:50 330 2 5.4 9.0
2014-Sep-23 10:20 5.4 8.0
2014-Sep-23 09:50 5.4 9.0
2014-Sep-23 09:20 5.4 8.0
2014-Sep-23 08:50 5.4 8.0
2014-Sep-23 08:20 5.4 7.0
2014-Sep-23 07:50 5.4 6.0
2014-Sep-23 07:20 5.4 6.0
2014-Sep-23 06:20 5.4-0.0
2014-Sep-23 05:20 200 4 5.4-3.0
2014-Sep-23 04:50 4.3-3.0 Mist.
2014-Sep-23 04:20 3.8-3.0
2014-Sep-23 03:20 210 2 3.8-3.0 Mist.
2014-Sep-23 02:50 210 2 5.4-2.0
2014-Sep-23 02:20 160 2 3.8-3.0
2014-Sep-23 01:50 190 1 3.8-2.0 Mist.
2014-Sep-23 01:20 210 3 4.3-3.0
2014-Sep-23 00:20 190 1 3.2-2.0
2014-Sep-22 23:20 200 2 4.3-1.0
2014-Sep-22 22:20 2.1-0.0 Mist.
2014-Sep-22 21:50 5.4-1.0
2014-Sep-22 21:20 5.4-0.0
2014-Sep-22 20:50 5.4 1.0
2014-Sep-22 20:20 5.4 2.0
2014-Sep-22 19:50 5.4 1.0
2014-Sep-22 19:20 5.4 2.0
2014-Sep-22 18:50 010 2 5.4 4.0
2014-Sep-22 18:20 360 4 5.4 6.0
2014-Sep-22 17:50 020 4 5.4 6.0
2014-Sep-22 17:20 360 8 5.4 8.0
2014-Sep-22 16:50 360 9 5.4 9.0
2014-Sep-22 16:20 360 8 5.4 9.0
2014-Sep-22 15:50 010 10 5.410.0
2014-Sep-22 15:20 360 10 5.410.0
2014-Sep-22 14:50 010 14 5.410.0
2014-Sep-22 14:20 360 15 5.410.0
2014-Sep-22 13:50 360 15 5.410.0
2014-Sep-22 13:20 010 15 5.410.0
2014-Sep-22 12:50 010 14 5.4 9.0
2014-Sep-22 12:20 360 14 5.4 8.0
2014-Sep-22 11:50 360 14 5.4 7.0
2014-Sep-22 11:20 350 13 5.4 7.0 Precipitation.
2014-Sep-22 10:50 350 15 4.9 7.0 Light drizzle.
2014-Sep-22 10:20 350 13 4.3 7.0 Light rain.
2014-Sep-22 09:50 350 15 5.4 7.0
2014-Sep-22 09:20 350 13 5.4 7.0 Light drizzle.
2014-Sep-22 08:50 360 13 5.4 7.0 Light rain.
2014-Sep-22 08:20 360 17 4.3 7.0 Light drizzle.
2014-Sep-22 07:50 360 16 4.3 7.0 Drizzle.
2014-Sep-22 07:20 360 17 5.4 7.0 Rain.
2014-Sep-22 06:50 360 17 5.4 7.0 Rain.
2014-Sep-22 06:20 350 17 5.4 8.0 Light rain.
2014-Sep-22 05:50 360 18 3.2 8.0 Light rain.
2014-Sep-22 05:20 350 18 gusting 31 4.3 8.0 Rain.
2014-Sep-22 04:50 350 15 5.4 8.0 Drizzle.
2014-Sep-22 04:20 350 17 gusting 29 4.9 8.0 Light rain.
2014-Sep-22 03:50 350 14 5.4 8.0 Light rain.
2014-Sep-22 02:50 350 13 5.4 8.0
2014-Sep-22 02:20 340 11 gusting 22 5.4 8.0 Precipitation.
2014-Sep-22 01:50 350 12 5.4 9.0
2014-Sep-22 01:20 350 11 5.4 8.0 Light drizzle.
2014-Sep-22 00:50 340 11 5.4 8.0 Light rain.
2014-Sep-22 00:20 340 11 5.4 8.0 Light drizzle.
2014-Sep-21 23:50 340 10 5.4 9.0 Light rain.
2014-Sep-21 23:20 350 9 5.4 9.0 Precipitation.
2014-Sep-21 22:50 340 10 5.4 9.0
2014-Sep-21 22:20 350 10 5.4 9.0 Light drizzle.